GFSNGP_925_spd_141.txt.gz
Wind_Speed
7 9 11 12 11 13 13 17 16 17 20 22 21 19 17 12 7 6 12 11 10 9 9 8 6 4 3 3 6 7 8 10 11 12 12 13 16 18 18 21 23 24 27 26
4 10 13 14 16 15 15 20 18 20 26 21 20 5 6 8 7 8 12 12 12 10 11 9 7 6 4 3 4 6 8 9 10 12 13 14 15 16 18 20 23 26 26 28
8 14 10 12 13 18 20 21 18 19 21 17 13 14 9 7 5 8 11 12 12 12 11 9 8 7 5 5 4 5 7 9 11 12 13 13 14 16 18 21 22 25 27 26
5 5 11 13 4 9 15 17 15 16 17 16 9 4 2 4 8 9 11 13 12 14 12 11 9 8 7 6 5 5 6 8 10 12 13 13 14 16 17 19 21 23 25 27
7 11 13 17 13 10 9 13 11 15 16 11 5 2 8 5 5 8 11 14 12 14 13 12 10 8 8 6 6 6 7 7 9 10 11 12 14 14 15 16 18 20 23 26
9 11 14 15 5 5 3 11 7 3 6 4 3 6 2 7 8 10 14 16 15 15 14 11 9 9 8 7 7 7 6 7 8 9 11 12 11 12 13 13 15 16 19 22
13 13 14 13 13 8 6 3 5 2 2 4 6 3 6 9 10 15 15 17 16 13 14 12 10 11 11 9 9 6 7 7 8 9 11 11 10 10 12 13 14 15 16 19
13 16 19 8 13 8 4 2 5 5 5 4 8 6 7 8 11 15 16 18 16 15 14 12 11 12 12 11 9 8 8 8 9 9 9 10 10 11 11 10 12 13 15 17
10 10 5 6 9 10 3 7 6 6 5 8 9 8 11 12 13 16 19 19 18 17 16 13 12 12 12 12 10 9 9 9 9 8 8 9 10 9 10 11 12 12 13 15
13 12 10 9 10 11 8 8 8 6 6 10 8 12 12 12 13 16 20 20 20 19 18 16 13 12 12 12 11 9 8 7 7 7 8 8 10 12 12 12 11 12 14 14
15 12 13 13 10 11 12 9 8 6 7 9 10 12 13 13 14 19 21 21 22 21 19 18 17 14 14 14 12 10 8 7 7 7 8 10 11 12 11 14 15 11 13 12
9 9 10 11 2 1 5 10 10 10 9 9 11 11 14 13 18 20 21 22 22 21 20 19 19 17 16 15 13 11 9 8 6 6 5 6 8 9 11 11 11 14 15 14
14 16 14 4 4 3 6 5 6 9 9 9 10 12 16 14 19 20 21 22 22 22 21 21 20 19 18 16 14 12 9 8 7 6 5 4 3 3 8 5 7 10 10 12
15 10 10 9 6 7 6 4 4 7 7 8 10 12 14 15 17 20 21 22 21 21 21 21 20 19 18 17 14 11 10 8 7 6 5 4 3 3 3 2 1 4 7 8
11 11 9 1 6 7 6 6 6 6 6 6 8 11 14 15 17 19 20 21 20 20 20 20 20 18 18 16 15 13 12 10 8 6 5 5 3 3 2 2 2 3 4 6
12 9 8 8 8 7 8 7 8 6 6 6 8 10 13 15 16 18 19 21 21 19 21 20 20 19 18 17 16 14 10 10 9 7 6 4 3 2 2 1 1 3 4 7
9 10 9 9 9 8 7 5 5 5 5 7 8 10 12 13 15 17 18 18 17 17 19 19 20 20 20 19 16 13 11 11 8 7 5 4 3 2 1 1 2 3 3 4
8 4 8 7 7 6 4 3 3 3 4 6 7 9 10 14 13 16 17 17 15 16 16 18 20 21 19 18 14 12 11 10 9 7 6 4 3 2 2 1 1 1 2 3
6 6 5 3 2 3 4 5 4 7 11 12 11 10 11 13 14 17 19 18 18 19 17 19 20 20 17 16 13 12 11 10 8 7 6 5 4 3 2 1 1 1 2 3
7 7 7 8 9 8 7 12 10 8 8 9 10 11 12 12 16 19 19 18 16 15 21 19 21 18 16 16 13 11 10 10 8 7 6 5 4 4 3 2 1 1 2 3
8 9 9 9 9 10 8 9 10 9 9 9 10 11 12 13 15 18 18 15 13 17 17 21 19 17 16 16 13 11 10 9 8 7 6 5 4 4 4 3 2 1 2 2
7 6 8 9 9 8 8 9 9 10 10 10 9 12 14 14 15 15 13 14 15 18 19 19 18 17 16 17 13 11 10 9 8 7 6 6 6 5 5 3 3 2 2 2
8 8 9 8 8 10 9 9 9 10 10 10 12 13 14 16 18 16 12 13 15 18 17 17 17 18 18 16 12 11 10 9 8 7 6 6 6 5 5 4 3 3 3 3
8 8 8 9 10 10 7 8 9 8 9 10 10 13 14 15 13 11 12 16 17 21 17 17 19 18 18 13 12 11 9 8 7 7 7 7 6 5 5 4 4 3 3 3
7 8 8 8 8 6 9 10 10 9 10 10 11 12 11 11 13 14 15 16 20 20 16 19 20 19 14 12 11 10 9 8 8 8 7 6 6 5 4 4 4 4 4 3
8 7 7 7 5 8 9 10 8 10 11 11 11 11 11 10 13 15 15 17 20 18 15 18 19 17 13 12 11 10 9 9 9 7 7 6 6 5 5 5 4 3 3 4
6 6 8 7 6 7 7 8 9 10 10 12 12 12 13 13 15 16 16 19 19 17 16 17 18 15 14 13 11 10 9 8 8 7 7 6 6 5 5 5 4 4 4 5

GFSNGP_925_spd_144.txt.gz
Wind_Speed
5 10 3 12 13 15 15 12 13 9 12 14 9 12 13 5 6 3 11 13 10 9 11 12 11 9 8 6 6 7 10 11 11 11 11 13 15 17 18 22 25 24 27 28
4 6 8 10 15 15 15 13 16 13 19 15 13 16 2 2 2 1 5 12 11 10 13 12 12 10 9 9 8 9 11 11 11 12 12 14 15 15 19 21 24 28 28 30
7 9 10 6 15 13 14 16 13 15 17 13 12 11 4 4 4 4 3 11 11 10 12 13 12 12 12 10 10 9 11 11 11 11 14 15 15 15 17 20 23 25 27 28
4 6 9 8 11 17 15 16 15 16 15 12 8 7 5 4 2 3 6 10 10 13 14 14 13 12 13 12 10 10 9 8 11 12 14 14 15 15 15 17 20 26 24 26
5 9 11 15 3 10 9 13 11 12 12 10 7 3 4 4 2 1 7 11 16 16 16 14 15 13 12 12 12 11 9 9 9 11 12 13 13 14 14 14 16 19 24 27
6 8 9 9 12 2 5 8 8 13 7 5 4 3 3 4 6 9 15 19 19 20 17 16 15 13 14 13 13 11 10 9 9 9 9 10 10 12 14 12 13 15 17 24
9 7 8 11 4 7 7 1 6 2 1 1 2 2 6 7 11 12 15 22 22 17 22 18 16 15 17 15 13 11 10 9 10 10 10 9 9 8 9 9 11 13 16 19
8 9 13 9 9 10 3 3 5 2 2 4 7 5 6 8 11 12 13 16 19 20 20 18 15 16 16 15 13 12 12 12 11 10 10 9 9 10 11 9 11 12 14 15
7 7 6 7 5 7 2 2 2 3 6 9 8 7 9 10 11 12 15 16 16 19 19 17 17 17 18 17 15 14 13 12 11 10 11 10 10 10 10 11 12 13 13 14
9 10 9 2 5 4 4 4 5 3 1 11 8 10 10 10 10 12 17 18 17 18 17 17 17 16 17 20 17 16 14 12 11 10 9 10 11 9 12 14 13 15 13 14
10 6 8 8 5 7 5 5 4 2 3 8 10 11 11 9 11 15 18 19 19 18 18 18 18 17 18 19 19 16 13 13 12 11 10 9 14 13 13 15 13 11 14 12
6 5 7 5 5 2 2 3 6 8 8 7 9 10 11 10 14 17 18 20 20 19 19 19 19 18 17 18 18 16 14 13 12 12 14 12 12 13 12 11 12 13 13 12
9 6 6 5 7 5 7 8 6 7 7 8 8 11 13 10 15 17 19 21 20 21 20 21 21 19 19 19 18 16 14 14 12 11 10 10 14 14 12 7 8 9 10 11
7 7 7 5 4 6 7 6 3 5 6 6 8 10 12 13 15 17 18 20 20 21 21 22 21 21 21 21 18 16 13 14 12 10 10 8 7 6 8 9 9 6 6 7
9 10 10 8 6 10 6 7 6 5 5 4 5 7 11 10 11 15 17 20 20 20 21 22 21 21 22 21 17 15 14 13 11 11 10 9 8 6 6 5 4 6 5 4
15 16 10 9 7 8 8 6 7 6 5 4 2 4 5 11 12 16 15 20 19 16 20 21 21 23 20 19 17 16 14 14 13 10 11 9 7 6 5 4 4 4 6 6
9 9 10 9 9 7 7 6 6 6 3 5 6 5 6 7 15 16 15 17 17 16 18 21 23 22 19 19 18 16 16 16 12 12 10 9 7 6 5 4 4 4 4 6
8 7 8 7 7 5 5 6 5 4 4 11 13 11 11 15 10 16 19 20 18 14 14 17 23 22 21 21 17 16 16 14 12 11 10 8 7 6 5 5 4 3 4 4
7 6 5 5 4 6 7 6 9 11 12 13 13 12 13 14 18 19 20 20 17 17 17 23 23 23 21 22 15 16 16 14 12 11 10 10 8 6 6 5 5 3 2 2
10 12 14 14 14 14 10 12 15 12 11 12 14 13 11 12 16 18 19 17 18 16 23 22 23 22 20 22 15 14 15 14 12 12 9 9 9 8 7 5 5 3 2 2
12 11 10 9 9 12 10 9 10 10 9 9 9 9 10 14 18 19 16 12 17 19 24 23 22 19 19 21 15 14 14 13 12 11 11 8 8 6 6 6 5 4 2 1
8 8 9 10 9 9 9 9 11 12 10 9 11 13 15 14 14 13 14 12 20 25 23 23 20 19 19 21 14 15 13 12 12 11 9 9 7 9 7 6 5 4 3 2
9 9 10 10 10 10 10 11 10 10 10 10 13 13 12 12 13 13 9 18 20 21 20 20 19 21 20 19 14 15 13 12 11 9 8 8 6 6 7 7 6 5 4 3
9 9 10 13 14 12 7 9 10 9 11 11 12 13 14 13 12 12 14 18 19 22 18 20 22 23 22 17 15 15 14 12 10 10 9 8 7 7 6 5 7 5 6 5
10 10 9 9 8 7 12 11 10 10 11 11 11 11 12 12 12 16 19 18 22 20 18 21 23 22 18 16 15 15 13 12 10 10 10 9 8 7 7 7 7 6 6 6
8 8 8 8 7 12 12 13 10 11 11 12 11 11 10 12 16 18 19 19 22 17 22 23 21 21 16 16 16 14 13 13 13 10 9 9 9 9 9 7 6 6 6 5
5 8 9 7 9 11 12 11 11 12 12 14 12 14 13 15 17 18 19 21 19 19 20 20 21 18 18 17 15 14 13 10 10 11 11 10 9 9 9 8 6 6 8 8

GFSNGP_925_spd_147.txt.gz
Wind_Speed
2 5 2 4 5 5 5 5 6 6 10 5 5 4 5 8 11 14 14 14 12 11 13 17 17 15 12 10 9 8 9 10 12 12 12 14 18 18 20 23 24 23 26 29
3 5 5 3 10 7 6 5 5 5 9 6 8 7 4 9 14 14 14 14 14 14 19 19 20 18 16 13 11 10 11 12 12 12 14 16 16 19 24 23 28 27 28 30
4 5 4 4 7 5 4 7 5 8 9 4 5 5 5 7 9 11 14 15 15 15 20 21 22 24 22 17 14 12 12 13 13 15 16 16 16 17 21 26 25 30 30 31
2 4 9 9 8 16 20 18 14 13 10 6 3 6 6 6 7 8 12 13 12 17 20 25 26 24 20 19 16 14 14 14 15 16 16 14 14 14 15 18 24 26 29 31
2 5 6 9 7 10 9 13 13 11 5 8 8 7 5 4 5 4 8 11 19 27 29 28 25 26 22 20 19 16 14 14 15 16 15 13 14 14 13 13 17 24 25 28
4 5 7 5 14 11 6 11 7 7 4 9 6 3 3 4 4 6 15 23 26 29 29 25 27 26 26 25 22 18 16 15 13 12 12 12 13 13 12 11 14 18 21 23
7 3 6 6 1 5 5 7 5 6 7 7 4 3 6 7 5 8 15 26 30 29 28 29 27 28 27 26 22 19 18 16 14 12 11 10 9 8 9 11 13 16 17 19
5 5 7 6 4 9 7 4 7 6 5 5 7 5 7 6 7 10 14 19 27 28 27 26 26 26 25 21 20 18 17 17 16 14 12 12 12 11 9 10 13 13 14 17
7 6 5 1 1 1 5 5 4 7 5 9 10 7 9 7 9 9 16 18 22 27 25 22 21 22 24 22 21 19 19 19 17 14 11 9 10 10 14 14 14 14 13 14
4 5 4 5 5 5 6 3 4 6 8 9 8 10 10 8 8 10 15 16 20 23 22 21 19 19 21 23 23 22 21 19 18 15 15 11 10 10 13 13 14 13 13 13
2 7 6 3 4 5 5 2 3 7 8 9 9 10 10 8 10 15 18 18 21 19 19 23 22 21 23 25 24 23 21 19 16 15 16 14 13 13 13 11 10 13 13 13
5 6 6 3 3 5 6 6 6 6 7 9 9 11 9 8 14 18 19 21 19 19 20 24 24 24 25 26 26 24 20 19 18 16 17 17 18 16 12 14 14 13 10 8
4 4 6 7 7 5 4 2 3 5 6 8 10 14 16 8 15 19 21 23 22 22 21 23 23 25 25 27 26 23 19 20 20 18 18 19 16 16 17 11 10 11 11 11
7 4 2 4 5 7 6 3 4 4 5 8 12 18 19 15 18 20 22 25 24 24 24 25 23 22 23 25 25 22 20 19 21 19 19 19 16 14 14 15 14 11 6 8
7 6 7 5 6 7 6 6 5 3 1 3 6 12 19 12 13 21 26 29 27 27 28 28 26 25 24 24 24 22 20 22 18 18 17 14 15 14 12 11 13 13 12 3
8 8 6 6 8 7 7 7 6 4 5 5 7 7 13 19 18 24 26 30 27 21 29 30 28 27 26 24 21 21 23 21 21 18 17 15 13 12 11 10 15 17 9 5
6 8 7 6 8 7 7 6 5 3 5 6 10 11 10 11 19 21 24 29 27 24 30 32 29 30 27 25 23 21 20 19 18 16 16 15 13 13 12 11 13 11 7 5
9 7 8 9 8 7 7 8 8 10 5 10 15 15 16 18 11 20 23 24 23 22 26 30 32 31 27 25 22 20 21 18 16 17 16 15 14 13 11 11 9 10 9 7
5 11 13 12 7 9 8 8 11 16 15 16 15 13 16 21 24 26 27 27 24 23 22 28 30 27 24 22 20 20 20 20 16 18 17 14 14 12 10 10 10 9 8 10
14 15 18 16 19 15 10 17 20 18 15 16 18 18 17 19 23 24 22 18 20 19 25 26 24 23 25 24 20 20 19 20 17 18 17 15 13 13 12 13 11 9 8 7
13 12 11 12 12 18 18 16 18 15 13 13 15 14 15 16 18 20 17 12 16 18 24 24 22 23 26 25 20 21 20 20 18 17 14 14 14 14 12 9 9 9 8 7
9 9 9 12 11 11 11 11 12 13 12 10 12 15 16 16 18 16 16 18 21 21 23 23 22 22 24 25 18 21 21 20 19 17 17 15 15 13 14 12 12 11 9 7
10 11 12 11 9 11 12 12 12 12 12 12 14 14 16 17 18 15 7 17 22 23 23 22 22 22 21 25 17 21 20 20 18 16 14 14 12 14 14 13 12 10 10 10
10 11 11 16 17 12 6 11 12 11 11 12 11 12 14 16 13 11 14 21 21 22 21 21 21 22 21 24 16 20 20 18 18 16 16 15 13 13 13 13 12 11 10 9
11 12 13 13 10 8 12 13 13 13 13 11 12 14 14 16 16 17 17 18 20 20 19 21 23 23 21 22 20 20 20 19 17 16 14 13 13 12 11 11 10 10 9 8
9 8 9 11 10 15 14 14 11 12 12 12 14 14 15 13 14 18 19 18 22 20 22 23 24 24 22 21 21 19 18 16 15 13 12 12 11 11 11 10 10 10 10 10
10 11 10 9 13 14 16 15 13 12 15 16 13 15 15 19 21 20 18 20 24 20 23 24 24 23 21 21 20 18 16 14 13 12 12 12 12 12 12 11 9 9 10 10

GFSNGP_925_spd_150.txt.gz
Wind_Speed
9 15 17 4 4 8 6 6 8 7 10 8 9 10 9 8 8 11 13 13 13 12 13 16 20 19 16 15 14 12 13 12 12 11 9 10 12 15 18 18 16 19 22 22
4 7 6 5 12 4 1 2 3 6 8 7 8 6 8 11 12 13 14 14 14 12 16 17 20 22 19 17 16 14 14 14 13 12 11 14 19 17 21 21 20 21 23 24
7 15 2 5 7 5 4 5 6 7 8 6 7 8 7 11 13 13 14 15 15 14 18 20 23 25 23 20 18 16 15 15 15 15 15 14 16 19 20 23 23 23 24 25
3 4 8 10 6 7 10 10 9 11 4 6 5 4 4 4 9 9 10 11 11 17 20 22 24 25 24 22 20 18 16 16 17 16 16 14 14 15 18 20 24 24 24 24
3 5 5 7 5 7 8 21 11 9 7 4 7 5 5 3 3 7 9 11 18 24 26 26 29 28 26 24 21 18 17 17 17 17 15 14 12 12 13 17 20 23 23 21
3 4 6 5 7 6 5 13 8 11 8 11 6 3 4 5 2 4 10 20 24 28 28 30 30 30 28 26 23 20 19 19 17 16 15 15 14 13 12 13 16 17 19 18
8 4 6 6 7 4 9 7 7 8 8 9 6 4 4 8 3 5 11 22 28 31 31 33 33 32 29 28 26 22 20 18 17 16 15 13 12 12 14 14 13 14 16 15
5 6 8 6 3 7 6 1 4 6 6 6 5 5 5 5 6 7 12 20 27 28 29 31 34 32 30 29 26 23 20 19 17 15 13 12 11 10 14 17 12 11 12 14
7 6 6 4 4 1 5 5 4 7 5 10 9 7 8 7 7 7 15 19 24 28 29 29 32 34 33 30 26 23 21 20 18 15 13 12 11 14 17 18 14 10 8 13
3 4 5 6 0 3 4 5 7 6 7 7 8 9 9 7 8 7 15 18 24 26 24 26 28 29 28 29 25 23 22 21 19 16 14 12 13 13 14 14 12 11 11 13
2 3 1 3 6 6 6 8 7 6 8 10 8 9 9 9 10 13 17 19 24 21 20 24 24 22 23 25 25 24 24 23 19 19 16 14 12 11 11 9 7 12 12 13
4 6 5 5 7 7 8 7 8 9 5 4 8 11 9 9 14 17 18 20 19 20 20 23 24 22 23 24 25 26 22 21 18 21 18 18 19 16 11 12 11 11 9 10
5 5 6 7 7 7 8 9 8 9 8 10 7 8 11 7 17 19 19 21 21 23 23 24 25 24 24 26 27 26 22 20 22 22 21 21 18 20 20 13 12 12 10 8
5 5 5 6 6 8 7 7 7 4 8 12 14 15 16 12 15 20 21 25 25 23 23 25 25 26 26 28 28 23 22 21 21 23 24 23 21 20 20 21 18 14 9 8
9 7 7 8 6 8 6 7 7 6 5 6 14 14 17 11 13 20 23 26 24 23 23 24 24 25 26 27 28 27 24 24 24 24 23 23 21 19 19 17 17 15 12 5
12 7 7 6 9 8 8 8 7 6 6 5 6 12 19 21 21 22 26 28 24 21 27 27 26 25 25 26 27 26 24 23 23 24 22 23 22 20 19 17 18 18 13 9
4 5 6 5 8 8 10 8 9 7 7 7 9 13 15 14 14 19 24 29 29 29 30 31 29 25 25 26 27 26 24 24 24 24 23 22 20 20 19 19 19 18 13 10
8 7 6 7 10 9 7 7 7 8 6 13 15 17 16 15 10 18 23 25 23 23 27 30 28 28 27 27 27 25 27 27 26 23 20 18 17 17 17 17 18 17 13 12
5 7 5 8 6 10 9 8 7 14 17 18 16 12 14 15 19 21 23 24 22 21 22 27 30 30 30 29 28 28 25 25 23 21 20 19 17 17 16 16 16 15 14 13
10 8 12 12 15 13 9 15 20 18 15 16 16 15 13 16 21 22 20 14 17 17 24 28 31 31 30 28 25 22 23 23 22 20 20 20 20 18 15 14 13 15 15 14
10 9 12 12 10 16 19 19 20 16 15 15 15 15 17 18 19 21 18 10 10 17 24 28 31 30 26 24 21 22 23 23 21 22 20 20 19 17 16 17 16 14 15 15
8 9 9 12 11 12 15 15 18 18 15 14 15 16 17 15 16 13 13 16 17 19 23 26 24 22 23 23 22 21 21 22 20 20 20 19 19 18 18 17 15 15 14 14
8 10 11 10 10 11 14 13 13 12 12 12 12 12 14 16 18 14 5 11 16 19 20 21 20 19 21 24 22 22 21 22 21 21 19 18 18 18 18 17 16 15 14 14
10 11 11 14 15 12 7 10 11 10 9 9 8 9 12 15 12 11 8 13 14 19 18 18 18 19 20 24 20 22 22 21 21 21 18 15 17 16 16 17 17 16 14 14
11 10 12 11 7 5 10 12 11 10 10 8 9 9 9 11 11 12 10 13 14 17 16 18 18 19 20 23 18 22 20 19 18 16 16 16 15 15 15 15 14 14 13 12
8 7 9 10 9 12 13 11 8 10 10 9 9 9 8 10 9 11 12 14 16 16 17 18 21 21 20 21 20 19 19 18 17 16 15 14 13 13 13 13 12 12 12 12
8 9 9 8 10 13 14 14 13 11 12 13 12 11 12 12 11 14 15 15 17 18 18 20 22 22 20 20 19 18 18 16 15 14 13 12 11 11 11 11 11 11 10 10

GFSNGP_925_spd_156.txt.gz
Wind_Speed
5 10 5 4 5 6 10 9 6 4 10 12 6 11 11 4 6 7 8 10 12 12 10 20 22 24 23 20 20 18 17 16 14 10 8 7 6 7 7 7 8 9 10 14
10 16 15 9 9 4 6 5 8 11 17 6 5 6 7 8 10 10 11 13 12 12 15 22 24 26 24 23 22 19 18 17 15 11 8 9 8 9 10 11 11 10 14 16
4 8 7 5 16 14 5 6 8 11 12 5 5 12 13 15 14 14 14 15 16 17 17 24 26 30 28 27 24 21 19 18 16 12 12 12 11 12 13 12 11 13 15 17
2 4 6 5 3 8 13 11 12 15 12 7 10 9 6 5 11 11 7 9 10 12 19 23 27 29 28 26 25 23 21 20 18 17 16 15 14 15 15 13 13 14 15 16
3 4 6 6 5 7 7 9 17 11 7 7 2 3 4 5 5 6 8 7 12 19 22 25 30 31 28 27 26 24 23 22 22 21 18 17 16 16 15 13 12 12 12 13
3 5 5 6 5 4 6 10 8 12 14 8 7 4 5 5 3 5 8 15 20 24 25 28 29 31 31 29 28 25 25 24 24 24 22 19 16 15 13 11 11 9 11 11
11 8 6 7 3 5 6 8 7 5 5 8 6 7 2 8 5 5 7 17 24 26 25 28 33 33 30 29 29 27 24 23 24 24 22 19 17 15 13 10 8 7 7 8
6 7 11 7 4 12 8 3 2 4 6 9 4 2 4 5 7 7 9 17 22 22 23 29 32 32 29 29 26 25 24 24 24 24 22 20 20 18 15 10 7 5 5 6
7 6 4 6 5 5 3 4 4 4 5 8 7 5 7 7 8 6 10 17 21 23 25 27 31 30 29 27 26 27 25 23 23 22 21 21 21 19 20 14 10 7 6 8
4 7 6 6 3 3 4 6 4 4 6 10 8 10 7 8 7 6 11 14 20 22 21 25 29 28 24 26 27 28 27 24 23 23 21 19 18 19 20 20 14 9 10 11
6 6 4 3 6 5 4 4 4 5 5 9 9 8 7 7 7 6 11 15 20 19 19 23 29 26 22 25 29 30 27 26 24 22 21 19 17 17 20 19 16 12 10 12
4 7 6 5 6 6 7 7 8 7 6 4 6 10 7 6 7 11 12 17 17 17 19 24 27 25 24 27 30 31 27 25 24 24 21 20 19 14 11 13 12 9 10 11
6 4 6 3 3 5 8 8 8 8 6 9 5 6 6 5 9 14 16 18 18 19 21 24 26 27 26 28 31 29 27 24 20 24 24 22 21 20 18 11 11 12 12 9
4 2 2 1 5 7 7 7 8 4 4 5 7 8 10 6 11 14 16 20 19 20 21 23 25 27 28 29 30 27 26 25 24 25 26 24 23 21 21 23 20 17 11 10
7 7 4 4 3 3 0 2 5 7 7 6 9 9 13 9 8 13 17 17 18 20 20 21 24 26 28 29 29 27 26 26 24 25 26 24 23 22 22 21 22 20 17 12
5 6 5 4 7 5 3 3 4 6 5 5 7 8 14 13 13 16 19 21 22 17 23 24 24 26 27 27 26 26 24 26 26 25 26 24 24 25 23 22 22 22 19 17
5 5 4 4 7 8 8 7 8 6 4 7 7 13 16 15 16 16 19 20 20 20 23 24 24 23 25 27 27 27 27 26 26 23 25 26 26 26 24 22 23 23 21 17
12 7 4 6 6 7 7 8 6 7 6 7 13 17 15 12 10 16 21 20 17 14 19 20 19 20 22 24 26 25 27 26 25 24 24 24 24 25 23 22 23 22 21 18
5 6 6 6 8 6 3 5 5 9 11 14 15 8 12 11 14 17 19 20 18 18 20 19 18 19 21 23 25 22 23 25 24 22 22 22 21 21 22 22 22 21 21 21
5 5 5 3 6 3 6 8 13 13 12 14 13 12 9 7 11 16 19 15 17 13 15 21 20 21 22 22 22 20 21 23 24 22 21 21 22 22 21 19 19 19 20 21
7 7 7 7 7 12 18 10 12 10 13 14 12 10 12 11 12 16 16 8 10 10 15 22 21 23 22 22 20 19 20 21 21 21 21 20 20 20 18 18 19 19 20 19
4 7 8 7 7 10 17 18 18 16 18 18 17 18 19 17 16 13 8 10 13 13 18 20 20 22 24 23 22 19 18 18 18 18 19 19 20 19 19 18 17 17 17 18
5 7 8 8 8 11 15 16 16 17 17 17 17 16 15 16 16 12 5 11 15 15 17 17 17 19 21 22 20 17 18 16 15 16 17 18 18 18 18 18 16 16 17 16
7 9 10 13 15 12 8 10 14 15 15 13 13 14 18 16 11 9 11 15 14 14 13 13 14 16 18 20 17 16 15 15 15 15 16 16 15 15 15 15 15 16 15 15
8 8 9 9 5 5 10 12 14 13 14 12 11 9 9 9 5 12 12 14 15 15 15 15 15 16 16 15 15 15 15 15 14 15 15 15 14 13 13 13 14 15 15 15
8 5 7 6 8 9 10 10 8 10 12 11 10 9 10 7 13 13 12 15 17 16 16 16 15 14 14 15 15 14 13 13 13 13 13 13 12 12 12 12 12 12 13 13
7 9 8 7 9 10 12 11 10 8 9 13 11 10 11 12 14 13 14 16 16 15 16 15 14 13 13 15 14 13 13 12 12 12 11 11 10 10 10 9 9 10 11 11

GFSNGP_925_spd_162.txt.gz
Wind_Speed
11 10 8 7 9 11 10 3 3 5 10 13 7 10 13 2 8 11 14 16 16 17 18 25 25 25 25 24 30 27 25 20 18 15 13 12 11 10 8 7 6 5 5 5
6 14 17 17 16 16 15 12 10 13 19 19 7 15 17 13 9 12 14 16 17 18 19 23 27 28 27 25 25 25 25 21 18 16 16 13 12 11 10 9 8 8 7 7
6 10 10 9 18 21 16 14 16 15 20 9 8 16 15 16 11 12 15 18 20 21 20 26 29 30 30 27 25 23 22 20 19 17 16 14 13 13 12 11 10 9 9 9
9 12 10 9 7 13 16 16 18 19 18 12 11 16 13 11 12 13 14 18 18 17 23 27 28 28 27 27 27 24 22 20 19 20 18 16 15 15 13 12 11 9 9 8
5 10 16 22 11 6 6 13 16 17 16 15 13 10 15 12 12 13 15 16 16 26 26 28 30 30 30 28 27 25 24 23 21 23 21 18 17 16 14 13 11 9 8 8
10 13 8 12 5 5 4 13 14 14 15 13 8 7 10 12 8 8 5 12 17 22 26 28 30 31 31 30 29 27 26 24 22 22 20 19 18 16 14 12 11 10 8 7
15 12 13 23 20 9 11 8 3 5 9 5 9 12 4 6 7 7 7 11 19 23 22 26 31 31 28 28 27 26 25 23 23 22 21 20 18 16 15 13 12 10 9 7
12 12 19 9 13 18 12 11 9 8 9 6 7 2 1 3 6 10 12 14 18 20 20 24 29 29 26 25 25 30 28 26 25 24 22 21 19 16 15 14 12 11 10 8
9 10 4 2 5 7 10 12 13 11 9 7 5 5 6 7 9 10 10 15 17 19 21 20 23 25 25 23 31 30 27 25 25 24 22 22 19 17 16 14 12 11 11 9
8 13 18 17 15 14 15 15 14 11 9 7 7 8 9 11 11 13 14 15 18 20 19 20 20 21 22 29 31 31 27 25 24 24 22 21 18 17 15 15 13 11 10 10
13 12 12 15 14 16 17 13 12 11 10 11 8 9 10 12 12 11 13 16 18 17 18 19 21 19 22 29 31 25 23 23 23 22 21 19 18 17 16 14 13 12 11 11
7 6 8 5 1 6 6 6 8 9 8 9 10 11 13 12 12 12 14 17 17 17 18 21 22 21 22 25 27 26 24 23 23 22 22 20 18 16 15 12 16 13 11 10
13 6 7 8 9 7 3 10 14 5 5 5 6 10 14 13 13 16 15 16 16 17 18 22 22 23 24 26 26 25 23 23 22 21 21 20 19 17 15 11 10 12 11 12
9 7 10 7 3 4 5 7 6 5 3 3 7 9 10 8 13 14 14 14 16 18 19 21 22 22 23 25 25 23 21 23 21 20 20 19 18 17 15 16 15 13 11 11
4 3 7 3 2 3 3 1 2 3 4 5 7 9 10 11 10 11 14 16 16 17 18 20 21 21 22 23 24 23 21 22 19 19 18 17 16 16 16 16 15 14 14 12
7 6 7 5 5 5 3 2 2 1 4 6 7 7 7 9 11 13 13 16 19 17 19 19 19 21 23 23 22 21 19 20 20 19 18 17 17 17 16 16 15 16 16 16
5 7 4 5 7 7 8 8 8 7 4 7 8 12 13 14 13 14 14 14 10 15 16 20 20 24 24 25 24 20 19 19 18 17 17 18 18 18 17 16 16 16 16 16
7 8 9 10 9 5 5 5 7 8 6 5 10 14 10 9 10 13 16 17 16 13 14 17 20 24 25 26 22 18 18 18 18 16 16 17 17 17 17 16 16 16 15 15
4 4 2 4 5 5 5 4 4 4 5 12 12 8 9 9 14 16 17 15 14 15 12 16 20 21 20 21 19 17 17 17 17 15 15 16 17 17 16 16 16 16 16 15
7 6 5 6 7 7 4 5 5 7 6 11 13 11 8 10 15 18 16 13 10 9 19 19 20 17 18 21 18 15 16 16 16 15 16 17 17 17 16 16 16 16 16 16
9 9 7 7 8 9 7 5 7 8 10 8 10 11 11 11 14 17 15 7 7 13 18 21 18 17 17 20 17 15 15 15 15 15 16 16 16 16 16 16 15 15 15 15
7 7 4 5 8 9 10 10 11 11 14 14 12 12 14 14 14 12 9 9 13 17 17 16 15 18 18 22 15 15 14 14 14 14 14 14 14 15 14 14 14 13 13 14
4 7 5 7 8 9 12 13 12 12 13 12 13 10 10 11 10 9 7 9 13 15 15 14 16 20 22 17 15 14 14 14 13 13 13 13 12 13 13 13 13 13 13 13
2 5 6 6 8 9 9 10 12 12 13 13 14 10 9 11 12 11 14 13 14 15 12 14 17 19 19 15 14 13 13 13 12 12 11 12 11 11 11 11 12 11 11 12
3 4 5 5 5 5 8 9 11 11 12 12 12 10 9 7 7 11 12 13 15 13 13 14 17 18 12 13 13 12 12 12 11 11 11 12 11 11 11 11 11 11 11 11
6 4 4 4 5 6 6 6 7 7 8 8 8 8 9 11 13 13 13 13 12 14 14 14 14 12 12 13 12 12 11 11 12 11 11 11 11 11 10 10 10 10 10 10
5 5 6 6 5 5 6 6 7 7 7 8 10 8 9 10 11 12 13 13 13 13 13 13 12 11 11 11 11 11 11 12 12 12 11 11 11 10 10 9 9 9 9 9

GFSNGP_925_spd_165.txt.gz
Wind_Speed
16 19 24 15 13 12 9 8 5 7 13 9 9 8 11 7 10 6 10 12 14 16 18 23 26 22 25 21 31 30 30 26 25 20 17 13 13 12 11 9 8 7 7 7
13 17 17 22 23 21 20 18 13 16 21 16 12 12 13 15 13 10 11 14 16 18 20 22 29 28 27 26 27 30 29 26 24 21 19 16 14 13 11 11 9 10 8 7
11 18 14 14 21 20 21 19 19 17 20 10 10 14 14 13 15 15 13 15 17 17 20 26 30 32 32 30 28 25 25 26 25 23 23 18 15 15 15 14 11 11 10 9
9 13 14 9 5 7 13 14 18 17 18 12 12 11 12 11 11 12 9 13 16 16 21 27 30 29 29 28 28 25 23 22 25 25 23 23 19 18 15 12 12 10 9 9
5 10 14 24 15 12 3 10 12 13 14 13 9 13 17 10 11 9 8 10 13 21 25 29 30 31 32 30 29 27 26 25 23 26 24 22 18 17 16 15 13 12 10 9
8 6 7 14 4 4 5 10 11 12 13 9 9 10 8 7 12 11 1 9 17 25 26 26 29 32 30 30 30 28 28 26 24 24 22 21 20 20 18 15 14 11 10 9
16 15 11 22 20 17 10 7 8 9 3 6 8 9 8 7 4 4 3 5 20 26 25 27 29 28 23 26 25 27 27 26 24 24 22 21 20 18 17 16 14 12 10 9
11 10 13 9 12 19 17 17 17 11 10 6 4 3 3 2 1 5 8 6 15 18 20 31 33 32 26 22 29 31 30 28 27 25 23 23 21 19 17 16 15 14 12 10
5 6 11 5 9 7 11 10 11 11 13 14 3 3 6 6 7 7 9 13 13 18 20 21 26 32 25 22 34 35 32 28 27 25 22 22 22 20 18 16 14 14 13 11
16 15 18 14 12 14 14 15 15 16 15 14 9 4 6 6 7 8 11 13 15 19 19 18 21 23 24 31 34 32 28 27 26 24 23 22 18 18 16 16 14 13 12 12
18 16 17 15 15 8 10 13 18 18 15 13 13 8 6 8 9 9 11 17 21 19 20 22 23 22 27 31 33 28 26 26 24 23 22 22 18 17 15 15 14 12 12 12
8 10 9 10 2 5 11 13 11 8 9 6 8 10 8 9 10 11 11 17 17 20 22 24 24 23 26 28 29 28 26 24 24 23 22 21 19 16 11 15 13 11 11 10
16 16 11 12 10 11 11 4 8 11 14 6 3 6 10 11 12 15 16 16 16 18 21 24 25 25 26 29 29 27 25 25 24 22 22 21 20 18 17 10 14 13 11 12
6 8 12 13 8 5 7 4 5 4 9 5 5 5 9 9 14 16 14 15 17 19 21 23 24 24 26 27 26 24 22 24 23 22 22 21 21 20 17 16 15 11 12 11
11 9 9 7 5 6 5 2 5 9 10 7 10 8 10 8 7 9 17 18 19 20 21 22 22 23 25 26 25 24 22 22 20 19 19 19 18 17 17 16 15 14 13 12
6 7 8 9 9 8 8 6 4 1 4 6 7 9 11 15 17 16 12 14 17 14 20 20 21 23 24 25 24 22 20 22 20 18 18 18 16 16 16 16 16 16 16 15
8 8 7 7 6 7 9 8 8 8 5 4 7 10 12 15 16 16 18 15 9 17 18 25 25 24 25 25 23 21 18 20 20 18 18 18 17 17 16 16 17 17 16 19
6 8 9 10 9 8 6 5 5 7 6 4 3 10 7 5 5 9 14 17 19 20 17 22 26 27 27 28 20 19 19 20 19 17 17 17 17 17 18 18 17 17 15 18
5 6 7 6 6 5 4 5 7 7 7 2 6 6 9 10 13 14 15 16 15 16 14 21 25 26 24 28 17 18 19 19 17 16 16 16 16 16 17 17 16 15 16 17
3 5 6 7 11 11 7 8 7 8 10 5 7 8 8 10 14 15 16 11 7 12 21 20 21 18 19 23 17 16 19 16 16 14 14 15 15 14 15 15 16 16 16 17
6 6 7 8 7 10 9 7 6 8 10 8 7 6 9 13 15 16 13 7 9 18 18 23 18 17 18 22 16 17 17 16 15 15 15 14 15 15 15 15 15 16 16 16
6 6 6 7 6 9 13 12 11 11 10 12 14 13 13 13 14 12 9 14 15 20 20 16 15 17 18 22 14 17 16 14 13 13 13 13 14 15 14 15 16 15 16 16
5 7 8 8 7 9 10 11 12 12 13 12 12 12 12 11 10 6 6 9 14 16 15 14 18 19 23 14 18 16 15 14 13 12 13 12 12 14 14 15 14 14 13 13
6 7 7 6 5 6 6 9 10 12 13 13 12 10 9 10 12 13 14 13 16 16 15 18 20 21 18 17 17 16 14 13 12 11 12 12 12 12 12 13 12 12 11 12
4 5 6 3 3 3 5 6 8 9 10 12 11 11 9 7 9 11 13 15 16 13 14 17 21 21 16 17 15 13 13 12 11 11 11 11 11 10 10 11 10 11 10 11
3 2 4 1 3 2 3 2 4 5 6 8 9 9 11 12 14 14 14 15 14 15 16 17 16 13 14 13 13 13 12 12 11 10 10 10 10 10 10 10 9 10 9 10
4 3 4 4 3 3 3 4 5 6 5 8 9 9 10 10 11 13 14 14 14 14 14 14 12 12 13 13 12 12 11 11 11 11 10 10 10 10 10 9 8 8 8 9